Terminal Aerodrome Forecast
Issued by NWS Hastings, NE

Home | Current Version | Previous Version | Text Only | Print | Product List | Glossary On
Versions: 1 2 3 4 5 6 7 8 9 10 11 12 13 14 15 16 17 18 19 20 21 22 23 24 25 26 27 28 29 30 31 32 33 34
000
FTUS45 KGID 211725
TAFEAR
TAF
KEAR 211725Z 2118/2218 18010KT 2SM BR BKN004
     FM212200 20010KT 4SM BR BKN120
     FM220000 19015KT 5SM BR OVC150
     FM220300 21012KT 3SM -RA BR BKN009 OVC150
     FM220900 24012KT P6SM BKN050
      AMD LTD TO CLD VIS AND WIND=

USA.gov is the U.S. government's official web portal to all federal, state and local government web resources and services.